Torna al catalogo

OPS 7218

TRANSIT 16

AttivoNavigazionePO
NORAD 2807·PAYLOAD·🇺🇸 United States

Lanciato May 18, 1967 da Vandenberg Space Force Base

Loading…

Prossimi Passaggi (prossime 24 ore)

TLE

AggiornatoSource: Space-Track

Epoca: Sep 14, 2026, 03:49 UTC

1 02807U 67048A   26257.15906020  .00000086  00000-0  11701-3 0  9994
2 02807  89.6784 344.9732 0021307  44.3621 331.7815 13.50779629919945

Traccia OPS 7218 in tempo reale con AllMySat

Download on the App Store